Tracking 31027 objects as of 19-Jul-2025
HD Live streaming from Space Station
objects crossing your sky now

YAOGAN-33

Track YAOGAN-33 now!
10-day predictions


NORAD ID: 47302
Int'l Code: 2020-103A
Perigee: 701.4 km
Apogee: 705.9 km
Inclination: 98.1 °
Period: 98.7 minutes
Semi major axis: 7074 km
RCS: Unknown
Launch date: December 27, 2020
Source: People's Republic of China (PRC)
Launch site: Jiuquan Satellite Launch Center, China (JSC)
Your satellite tracking list
FLOCK 4X 28
Track 1 satellite(s)




NASA's NSSDC Master Catalog

Two Line Element Set (TLE):
1 47302U 20103A   25199.88877810  .00000327  00000-0  79344-4 0  9998
2 47302  98.0844  86.2266 0003187  63.4566 296.6960 14.58967595242713
Source of the keplerian elements: AFSPC